SWISSCUBE

Last updated on Mon Nov 03 2025 00:03:21 GMT+0000 (Coordinated Universal Time)

1 35932U 09051B 25306.45608490 .00001706 00000+0 35180-3 0 9992 2 35932 98.4137 205.3190 0006248 188.1463 171.9637 14.61770584856025
UTC large
Height (km)
Speed (km/s)
/
Latitude / Longitude
Inclination (degrees)
Orbital Period (minutes)
Azimuth
Elevation
Range (km)
Doppler Factor

Next 0 passes for location: London (51.5072 / 0.1276)

Sorry there are no passes over London.